EXS44U EGBB-LICJ

Flight info

Callsign EXS44U
Flight time 2h 36m
Altitude 35000
Route COWLY UL612 OGULO DCT OKASI DCT OKEKO DCT MOU DCT MADIV DCT MOKIP DCT TUFTA DCT KOGAS DCT MEDAM DCT NITAM DCT MOGBO DCT TIDKA DCT KONER DCT POKAV DCT BETOT DCT RUVIP DCT RONAB DCT GIANO
Aircraft B738/M-SDE2E3FGHIRWXY/LB1

Departure

Time 2026-05-07 07:16
Airport Birmingham Airport (EGBB)

Arrival

Time 2026-05-07 09:52
Airport Falcone–Borsellino Airport (LICJ)
Time Latitude Longitude Altitude Speed Heading
2026-05-07 06:50 52.44884 -1.73399 320 ft 0 kts 146°
2026-05-07 07:01 52.44886 -1.73401 320 ft 2 kts 146°
2026-05-07 07:02 52.44903 -1.73421 319 ft 4 kts 147°
2026-05-07 07:02 52.44925 -1.73433 320 ft 4 kts 204°
2026-05-07 07:02 52.44943 -1.73406 319 ft 4 kts 236°
2026-05-07 07:02 52.44935 -1.73424 321 ft 4 kts 236°
2026-05-07 07:03 52.44933 -1.73431 321 ft 0 kts 236°
2026-05-07 07:08 52.44932 -1.73431 322 ft 0 kts 236°
2026-05-07 07:08 52.44917 -1.73469 321 ft 7 kts 236°
2026-05-07 07:08 52.44894 -1.73542 321 ft 7 kts 255°
2026-05-07 07:09 52.44914 -1.73611 321 ft 7 kts 321°
2026-05-07 07:09 52.44941 -1.73642 321 ft 8 kts 326°
2026-05-07 07:09 52.44991 -1.73697 322 ft 9 kts 326°
2026-05-07 07:09 52.45043 -1.73748 322 ft 9 kts 340°
2026-05-07 07:10 52.45099 -1.73775 322 ft 8 kts 336°
2026-05-07 07:10 52.45147 -1.73828 322 ft 8 kts 324°
2026-05-07 07:10 52.45192 -1.73880 321 ft 8 kts 325°
2026-05-07 07:10 52.45239 -1.73933 322 ft 9 kts 326°
2026-05-07 07:11 52.45292 -1.73996 322 ft 10 kts 317°
2026-05-07 07:11 52.45331 -1.74110 321 ft 13 kts 295°
2026-05-07 07:11 52.45376 -1.74256 322 ft 16 kts 297°
2026-05-07 07:11 52.45430 -1.74427 322 ft 18 kts 297°
2026-05-07 07:12 52.45501 -1.74603 321 ft 20 kts 321°
2026-05-07 07:12 52.45627 -1.74746 316 ft 24 kts 326°
2026-05-07 07:12 52.45781 -1.74916 308 ft 29 kts 326°
2026-05-07 07:12 52.45957 -1.75110 306 ft 31 kts 326°
2026-05-07 07:13 52.46141 -1.75315 302 ft 33 kts 326°
2026-05-07 07:13 52.46327 -1.75521 302 ft 31 kts 326°
2026-05-07 07:13 52.46503 -1.75714 304 ft 29 kts 326°
2026-05-07 07:13 52.46623 -1.75847 307 ft 5 kts 321°
2026-05-07 07:14 52.46637 -1.75898 304 ft 5 kts 271°
2026-05-07 07:14 52.46610 -1.75975 305 ft 11 kts 234°
2026-05-07 07:14 52.46568 -1.76061 305 ft 3 kts 228°
2026-05-07 07:14 52.46548 -1.76080 306 ft 4 kts 184°
2026-05-07 07:15 52.46514 -1.76053 308 ft 10 kts 146°
2026-05-07 07:15 52.46394 -1.75917 308 ft 38 kts 145°
2026-05-07 07:15 52.45937 -1.75409 316 ft 120 kts 146°
2026-05-07 07:15 52.45061 -1.74427 510 ft 174 kts 146°
2026-05-07 07:16 52.43978 -1.73390 1465 ft 178 kts 152°
2026-05-07 07:16 52.42970 -1.72376 2783 ft 165 kts 142°
2026-05-07 07:16 52.42014 -1.71221 3441 ft 182 kts 144°
2026-05-07 07:16 52.40889 -1.69948 3709 ft 209 kts 156°
2026-05-07 07:17 52.39454 -1.69330 4139 ft 218 kts 168°
2026-05-07 07:17 52.37953 -1.68786 4661 ft 223 kts 163°
2026-05-07 07:17 52.36529 -1.67718 5152 ft 230 kts 151°
2026-05-07 07:17 52.35049 -1.66430 5350 ft 253 kts 149°
2026-05-07 07:18 52.33498 -1.64841 5629 ft 271 kts 147°
2026-05-07 07:18 52.31895 -1.63133 6308 ft 277 kts 147°
2026-05-07 07:18 52.30276 -1.61428 7145 ft 278 kts 147°
2026-05-07 07:18 52.28659 -1.59745 7939 ft 281 kts 147°
2026-05-07 07:19 52.26976 -1.58006 8352 ft 296 kts 148°
2026-05-07 07:19 52.25201 -1.56218 9041 ft 299 kts 150°
2026-05-07 07:19 52.23305 -1.54626 9156 ft 309 kts 155°
2026-05-07 07:19 52.21390 -1.53163 10140 ft 299 kts 155°
2026-05-07 07:20 52.19533 -1.51736 11152 ft 293 kts 155°
2026-05-07 07:20 52.17682 -1.50299 11867 ft 297 kts 155°
2026-05-07 07:20 52.15807 -1.48826 12543 ft 301 kts 155°
2026-05-07 07:20 52.13911 -1.47332 13262 ft 303 kts 155°
2026-05-07 07:21 52.12006 -1.45829 13969 ft 306 kts 155°
2026-05-07 07:21 52.10077 -1.44307 14640 ft 309 kts 155°
2026-05-07 07:21 52.08130 -1.42771 15301 ft 312 kts 155°
2026-05-07 07:21 52.06168 -1.41225 15964 ft 314 kts 155°
2026-05-07 07:22 52.04193 -1.39670 16597 ft 317 kts 155°
2026-05-07 07:22 52.02223 -1.38121 17217 ft 320 kts 155°
2026-05-07 07:22 52.00217 -1.36544 17842 ft 322 kts 155°
2026-05-07 07:22 51.98194 -1.34957 18446 ft 325 kts 155°
2026-05-07 07:23 51.96160 -1.33362 19025 ft 328 kts 155°
2026-05-07 07:23 51.94092 -1.31742 19583 ft 331 kts 155°
2026-05-07 07:23 51.92034 -1.30131 20138 ft 334 kts 155°
2026-05-07 07:23 51.89905 -1.28467 20696 ft 337 kts 155°
2026-05-07 07:24 51.87791 -1.26816 21224 ft 340 kts 154°
2026-05-07 07:24 51.85648 -1.25145 21739 ft 343 kts 154°
2026-05-07 07:24 51.83494 -1.23466 22244 ft 346 kts 154°
2026-05-07 07:24 51.81316 -1.21770 22750 ft 348 kts 154°
2026-05-07 07:25 51.76893 -1.18334 23634 ft 356 kts 154°
2026-05-07 07:25 51.74622 -1.16571 23649 ft 366 kts 154°
2026-05-07 07:25 51.72346 -1.14807 24054 ft 362 kts 154°
2026-05-07 07:26 51.70068 -1.13042 24634 ft 361 kts 154°
2026-05-07 07:26 51.67838 -1.11318 25167 ft 361 kts 154°
2026-05-07 07:26 51.65565 -1.09560 25589 ft 364 kts 154°
2026-05-07 07:26 51.63269 -1.07789 25996 ft 366 kts 154°
2026-05-07 07:27 51.60983 -1.05966 26390 ft 368 kts 149°
2026-05-07 07:27 51.58841 -1.03704 26842 ft 368 kts 143°
2026-05-07 07:27 51.56792 -1.01254 27381 ft 366 kts 142°
2026-05-07 07:27 51.54760 -0.98800 27888 ft 364 kts 142°
2026-05-07 07:28 51.52727 -0.96392 28325 ft 364 kts 143°
2026-05-07 07:28 51.50674 -0.94015 28769 ft 363 kts 143°
2026-05-07 07:28 51.48616 -0.91666 29216 ft 362 kts 144°
2026-05-07 07:28 51.46565 -0.89337 29633 ft 361 kts 144°
2026-05-07 07:29 51.44401 -0.87219 29731 ft 371 kts 155°
2026-05-07 07:29 51.41981 -0.85594 29835 ft 380 kts 158°
2026-05-07 07:29 51.39490 -0.84036 29918 ft 389 kts 158°
2026-05-07 07:30 51.34380 -0.80865 30074 ft 406 kts 158°
2026-05-07 07:30 51.29021 -0.77483 30218 ft 422 kts 158°
2026-05-07 07:31 51.23470 -0.73952 30350 ft 437 kts 158°
2026-05-07 07:31 51.17732 -0.70305 30467 ft 451 kts 158°
2026-05-07 07:32 51.11817 -0.66556 30613 ft 462 kts 158°
2026-05-07 07:32 51.08820 -0.64660 30821 ft 464 kts 158°
2026-05-07 07:32 51.05833 -0.62716 31164 ft 462 kts 155°
2026-05-07 07:32 51.03087 -0.60282 31504 ft 460 kts 146°
2026-05-07 07:33 51.00445 -0.57440 31836 ft 459 kts 145°
2026-05-07 07:33 50.97816 -0.54559 32109 ft 459 kts 145°
2026-05-07 07:33 50.95184 -0.51684 32356 ft 459 kts 145°
2026-05-07 07:33 50.92551 -0.48838 32647 ft 458 kts 146°
2026-05-07 07:34 50.89917 -0.46018 32958 ft 456 kts 146°
2026-05-07 07:34 50.87281 -0.43216 33241 ft 456 kts 146°
2026-05-07 07:34 50.84651 -0.40431 33492 ft 455 kts 146°
2026-05-07 07:34 50.82016 -0.37647 33744 ft 455 kts 146°
2026-05-07 07:35 50.79382 -0.34867 34002 ft 454 kts 146°
2026-05-07 07:35 50.76752 -0.32094 34228 ft 454 kts 146°
2026-05-07 07:35 50.74120 -0.29323 34404 ft 455 kts 146°
2026-05-07 07:35 50.71488 -0.26555 34613 ft 455 kts 146°
2026-05-07 07:36 50.68855 -0.23791 34837 ft 455 kts 146°
2026-05-07 07:36 50.66259 -0.21068 35009 ft 456 kts 146°
2026-05-07 07:36 50.63618 -0.18303 35063 ft 458 kts 146°
2026-05-07 07:37 50.58301 -0.12746 35073 ft 457 kts 147°
2026-05-07 07:37 50.53017 -0.07233 35074 ft 453 kts 147°
2026-05-07 07:38 50.47796 -0.01798 35074 ft 451 kts 147°
2026-05-07 07:38 50.42569 0.03627 35071 ft 450 kts 147°
2026-05-07 07:39 50.37303 0.09095 35081 ft 458 kts 147°
2026-05-07 07:39 50.31961 0.14638 35075 ft 462 kts 147°
2026-05-07 07:40 50.26591 0.20205 35075 ft 463 kts 147°
2026-05-07 07:40 50.21212 0.25764 35077 ft 463 kts 147°
2026-05-07 07:41 50.15829 0.31305 35072 ft 463 kts 148°
2026-05-07 07:41 50.10449 0.36811 35068 ft 462 kts 148°
2026-05-07 07:42 50.05118 0.42260 35073 ft 460 kts 148°
2026-05-07 07:42 49.99761 0.47725 35071 ft 459 kts 148°
2026-05-07 07:43 49.94422 0.53155 35078 ft 458 kts 148°
2026-05-07 07:43 49.89082 0.58574 35074 ft 458 kts 148°
2026-05-07 07:44 49.83851 0.64103 35077 ft 458 kts 143°
2026-05-07 07:44 49.78917 0.70322 35079 ft 459 kts 141°
2026-05-07 07:45 49.73991 0.76666 35079 ft 460 kts 141°
2026-05-07 07:45 49.69025 0.82950 35064 ft 462 kts 142°
2026-05-07 07:46 49.64021 0.89208 35062 ft 462 kts 142°
2026-05-07 07:46 49.59039 0.95412 35070 ft 463 kts 142°
2026-05-07 07:47 49.54018 1.01647 35068 ft 464 kts 142°
2026-05-07 07:47 49.48981 1.07891 35072 ft 465 kts 142°
2026-05-07 07:48 49.43933 1.14133 35068 ft 465 kts 142°
2026-05-07 07:48 49.38879 1.20362 35078 ft 465 kts 142°
2026-05-07 07:49 49.33822 1.26578 35070 ft 465 kts 142°
2026-05-07 07:49 49.28801 1.32736 35073 ft 465 kts 142°
2026-05-07 07:50 49.23756 1.38911 35069 ft 465 kts 142°
2026-05-07 07:50 49.18700 1.45082 35070 ft 464 kts 142°
2026-05-07 07:51 49.13653 1.51227 35079 ft 464 kts 142°
2026-05-07 07:51 49.08598 1.57362 35067 ft 464 kts 142°
2026-05-07 07:52 49.03546 1.63478 35064 ft 463 kts 142°
2026-05-07 07:52 48.98490 1.69586 35063 ft 463 kts 142°
2026-05-07 07:53 48.93433 1.75674 35053 ft 463 kts 142°
2026-05-07 07:53 48.88404 1.81711 35057 ft 464 kts 142°
2026-05-07 07:54 48.83335 1.87785 35059 ft 465 kts 142°
2026-05-07 07:54 48.78243 1.93868 35056 ft 466 kts 142°
2026-05-07 07:55 48.73143 1.99949 35045 ft 467 kts 142°
2026-05-07 07:55 48.68031 2.06024 35049 ft 467 kts 142°
2026-05-07 07:56 48.62932 2.12067 35047 ft 468 kts 142°
2026-05-07 07:56 48.57806 2.18129 35046 ft 468 kts 142°
2026-05-07 07:57 48.53008 2.24781 35054 ft 469 kts 135°
2026-05-07 07:57 48.48469 2.31854 35045 ft 469 kts 134°
2026-05-07 07:58 48.43898 2.38874 35047 ft 469 kts 135°
2026-05-07 07:58 48.40069 2.44655 35043 ft 469 kts 135°
2026-05-07 07:59 48.35446 2.51595 35046 ft 468 kts 135°
2026-05-07 07:59 48.30830 2.58514 35046 ft 468 kts 135°
2026-05-07 08:00 48.25710 2.64378 35044 ft 466 kts 153°
2026-05-07 08:00 48.19808 2.68363 35041 ft 465 kts 154°
2026-05-07 08:01 48.14118 2.73024 35048 ft 465 kts 151°
2026-05-07 08:01 48.08439 2.77698 35045 ft 465 kts 154°
2026-05-07 08:02 48.02546 2.81605 35048 ft 465 kts 158°
2026-05-07 08:02 47.96589 2.85308 35046 ft 465 kts 159°
2026-05-07 08:03 47.90703 2.89353 35034 ft 467 kts 148°
2026-05-07 08:03 47.85809 2.95721 35056 ft 469 kts 134°
2026-05-07 08:04 47.81370 3.02861 35049 ft 470 kts 133°
2026-05-07 08:04 47.76938 3.09942 35048 ft 471 kts 134°
2026-05-07 08:05 47.72434 3.17035 35045 ft 472 kts 134°
2026-05-07 08:05 47.67913 3.24100 35048 ft 472 kts 134°
2026-05-07 08:06 47.63387 3.31151 35043 ft 472 kts 134°
2026-05-07 08:06 47.58854 3.38194 35047 ft 472 kts 134°
2026-05-07 08:07 47.54320 3.45223 35048 ft 472 kts 134°
2026-05-07 08:07 47.49773 3.52253 35049 ft 472 kts 134°
2026-05-07 08:08 47.45241 3.59243 35040 ft 471 kts 134°
2026-05-07 08:08 47.40696 3.66230 35046 ft 471 kts 135°
2026-05-07 08:09 47.36175 3.73165 35047 ft 471 kts 135°
2026-05-07 08:09 47.31631 3.80116 35048 ft 470 kts 135°
2026-05-07 08:10 47.27082 3.87056 35048 ft 470 kts 135°
2026-05-07 08:10 47.22541 3.93965 35045 ft 469 kts 135°
2026-05-07 08:11 47.17999 4.00858 35050 ft 469 kts 135°
2026-05-07 08:11 47.13454 4.07741 35046 ft 469 kts 135°
2026-05-07 08:12 47.08922 4.14582 35047 ft 469 kts 135°
2026-05-07 08:12 47.04368 4.21442 35047 ft 469 kts 135°
2026-05-07 08:13 46.99806 4.28294 35045 ft 470 kts 136°
2026-05-07 08:13 46.95232 4.35145 35051 ft 470 kts 136°
2026-05-07 08:14 46.90649 4.41991 35042 ft 472 kts 136°
2026-05-07 08:14 46.86049 4.48847 35047 ft 472 kts 136°
2026-05-07 08:15 46.81440 4.55698 35042 ft 473 kts 136°
2026-05-07 08:15 46.76828 4.62538 35052 ft 473 kts 136°
2026-05-07 08:16 46.72207 4.69368 35045 ft 474 kts 136°
2026-05-07 08:16 46.67569 4.76208 35046 ft 474 kts 136°
2026-05-07 08:17 46.62961 4.82989 35047 ft 474 kts 136°
2026-05-07 08:17 46.58315 4.89806 35047 ft 474 kts 136°
2026-05-07 08:18 46.53678 4.96597 35047 ft 474 kts 136°
2026-05-07 08:18 46.49024 5.03390 35047 ft 474 kts 136°
2026-05-07 08:19 46.45061 5.11015 35049 ft 477 kts 119°
2026-05-07 08:19 46.42785 5.20036 35057 ft 478 kts 105°
2026-05-07 08:20 46.41176 5.29391 35040 ft 479 kts 105°
2026-05-07 08:20 46.39361 5.38611 35023 ft 478 kts 113°
2026-05-07 08:21 46.36114 5.46929 35027 ft 474 kts 131°
2026-05-07 08:21 46.31820 5.54146 35034 ft 473 kts 133°
2026-05-07 08:22 46.27482 5.61317 35038 ft 474 kts 133°
2026-05-07 08:22 46.23168 5.68543 35028 ft 475 kts 133°
2026-05-07 08:23 46.18861 5.75796 35029 ft 476 kts 133°
2026-05-07 08:23 46.14540 5.83064 35031 ft 477 kts 133°
2026-05-07 08:24 46.10198 5.90341 35025 ft 479 kts 133°
2026-05-07 08:24 46.05848 5.97609 35018 ft 479 kts 133°
2026-05-07 08:25 46.01493 6.04865 35023 ft 479 kts 133°
2026-05-07 08:25 45.97159 6.12070 35013 ft 479 kts 133°
2026-05-07 08:26 45.90612 6.22917 35018 ft 478 kts 133°
2026-05-07 08:26 45.86248 6.30128 35011 ft 477 kts 133°
2026-05-07 08:27 45.81885 6.37300 35018 ft 476 kts 135°
2026-05-07 08:27 45.76874 6.43341 35039 ft 469 kts 148°
2026-05-07 08:28 45.71538 6.48634 35033 ft 469 kts 148°
2026-05-07 08:28 45.66185 6.53980 35017 ft 468 kts 148°
2026-05-07 08:29 45.60859 6.59356 35022 ft 468 kts 148°
2026-05-07 08:29 45.55551 6.64730 35023 ft 468 kts 148°
2026-05-07 08:30 45.50239 6.70093 35023 ft 469 kts 148°
2026-05-07 08:30 45.44913 6.75457 35022 ft 469 kts 149°
2026-05-07 08:31 45.39570 6.80823 35025 ft 468 kts 149°
2026-05-07 08:31 45.34279 6.86125 35015 ft 468 kts 149°
2026-05-07 08:32 45.28954 6.91450 35015 ft 468 kts 149°
2026-05-07 08:32 45.23861 6.97223 35019 ft 472 kts 140°
2026-05-07 08:33 45.19217 7.03839 35021 ft 473 kts 139°
2026-05-07 08:33 45.14539 7.10396 34998 ft 473 kts 140°
2026-05-07 08:34 45.09906 7.16994 34999 ft 475 kts 133°
2026-05-07 08:34 45.06081 7.24678 35015 ft 477 kts 128°
2026-05-07 08:35 45.02388 7.32382 34986 ft 475 kts 129°
2026-05-07 08:35 44.98591 7.40021 34999 ft 475 kts 130°
2026-05-07 08:36 44.94362 7.47101 34998 ft 470 kts 137°
2026-05-07 08:36 44.89899 7.53865 35001 ft 470 kts 138°
2026-05-07 08:37 44.85440 7.60634 34992 ft 471 kts 137°
2026-05-07 08:37 44.81010 7.67437 34997 ft 472 kts 137°
2026-05-07 08:38 44.76580 7.74268 34997 ft 472 kts 137°
2026-05-07 08:38 44.72168 7.81061 35007 ft 473 kts 138°
2026-05-07 08:39 44.67729 7.87877 35007 ft 473 kts 138°
2026-05-07 08:39 44.63275 7.94697 35012 ft 473 kts 138°
2026-05-07 08:40 44.58813 8.01509 35011 ft 474 kts 139°
2026-05-07 08:40 44.54350 8.08306 35014 ft 474 kts 139°
2026-05-07 08:41 44.49913 8.15051 35016 ft 472 kts 139°
2026-05-07 08:41 44.45453 8.21813 35004 ft 471 kts 139°
2026-05-07 08:42 44.41007 8.28532 35006 ft 471 kts 139°
2026-05-07 08:42 44.36551 8.35254 34995 ft 471 kts 139°
2026-05-07 08:43 44.32089 8.41969 34995 ft 470 kts 139°
2026-05-07 08:43 44.27667 8.48609 34998 ft 469 kts 139°
2026-05-07 08:44 44.23208 8.55286 34997 ft 469 kts 139°
2026-05-07 08:44 44.18757 8.61937 34999 ft 469 kts 139°
2026-05-07 08:45 44.14306 8.68575 35001 ft 468 kts 139°
2026-05-07 08:45 44.10605 8.74079 34998 ft 468 kts 139°
2026-05-07 08:46 44.06154 8.80683 35000 ft 468 kts 139°
2026-05-07 08:46 44.01708 8.87268 34993 ft 467 kts 140°
2026-05-07 08:47 43.97278 8.93816 34989 ft 466 kts 140°
2026-05-07 08:47 43.92832 9.00368 35003 ft 466 kts 140°
2026-05-07 08:48 43.88388 9.06902 35007 ft 465 kts 140°
2026-05-07 08:48 43.83943 9.13427 35011 ft 465 kts 140°
2026-05-07 08:49 43.79482 9.19888 35011 ft 462 kts 144°
2026-05-07 08:49 43.74651 9.25580 35016 ft 456 kts 148°
2026-05-07 08:50 43.69711 9.31089 35017 ft 456 kts 148°
2026-05-07 08:50 43.64798 9.36658 35020 ft 456 kts 148°
2026-05-07 08:51 43.59909 9.42257 35008 ft 456 kts 148°
2026-05-07 08:51 43.55025 9.47844 35009 ft 456 kts 148°
2026-05-07 08:52 43.50097 9.53319 35008 ft 449 kts 154°
2026-05-07 08:52 43.44703 9.57441 35018 ft 442 kts 160°
2026-05-07 08:53 43.39275 9.61317 35029 ft 442 kts 160°
2026-05-07 08:53 43.33822 9.65249 35028 ft 442 kts 159°
2026-05-07 08:54 43.28370 9.69215 35032 ft 443 kts 159°
2026-05-07 08:54 43.22921 9.73189 35039 ft 444 kts 159°
2026-05-07 08:55 43.17464 9.77166 35036 ft 445 kts 159°
2026-05-07 08:55 43.11994 9.81141 35037 ft 446 kts 159°
2026-05-07 08:56 43.06507 9.85119 35038 ft 447 kts 159°
2026-05-07 08:56 43.01005 9.89101 35034 ft 447 kts 159°
2026-05-07 08:57 42.95533 9.93055 35037 ft 448 kts 159°
2026-05-07 08:57 42.90011 9.97033 35036 ft 448 kts 159°
2026-05-07 08:58 42.84480 10.01009 35035 ft 449 kts 159°
2026-05-07 08:58 42.78946 10.04982 35046 ft 449 kts 159°
2026-05-07 08:59 42.73416 10.08945 35047 ft 449 kts 159°
2026-05-07 08:59 42.67906 10.12886 35043 ft 449 kts 159°
2026-05-07 09:00 42.62369 10.16836 35048 ft 449 kts 159°
2026-05-07 09:00 42.56826 10.20780 35045 ft 449 kts 159°
2026-05-07 09:01 42.51285 10.24717 35047 ft 450 kts 159°
2026-05-07 09:01 42.45724 10.28660 35047 ft 450 kts 160°
2026-05-07 09:02 42.40169 10.32591 35049 ft 451 kts 160°
2026-05-07 09:02 42.34641 10.36497 35051 ft 451 kts 160°
2026-05-07 09:03 42.29072 10.40420 35042 ft 451 kts 160°
2026-05-07 09:03 42.23491 10.44347 35043 ft 451 kts 160°
2026-05-07 09:04 42.17923 10.48256 35048 ft 451 kts 160°
2026-05-07 09:04 42.12351 10.52160 35047 ft 451 kts 160°
2026-05-07 09:05 42.06777 10.56058 35050 ft 451 kts 160°
2026-05-07 09:05 42.01188 10.59958 35044 ft 451 kts 159°
2026-05-07 09:06 41.95650 10.63815 35028 ft 452 kts 160°
2026-05-07 09:06 41.90002 10.67733 35040 ft 461 kts 162°
2026-05-07 09:07 41.84250 10.71717 35054 ft 468 kts 162°
2026-05-07 09:07 41.78458 10.75729 35042 ft 470 kts 162°
2026-05-07 09:08 41.72632 10.79758 35030 ft 471 kts 162°
2026-05-07 09:08 41.66815 10.83775 35038 ft 471 kts 162°
2026-05-07 09:09 41.60984 10.87788 35039 ft 471 kts 162°
2026-05-07 09:09 41.55194 10.91759 35039 ft 471 kts 162°
2026-05-07 09:10 41.49331 10.95777 35033 ft 471 kts 163°
2026-05-07 09:10 41.43504 10.99761 35032 ft 469 kts 163°
2026-05-07 09:11 41.37733 11.03698 35032 ft 468 kts 163°
2026-05-07 09:11 41.31933 11.07654 35034 ft 468 kts 163°
2026-05-07 09:12 41.26121 11.11599 35039 ft 469 kts 163°
2026-05-07 09:12 41.20288 11.15557 35033 ft 471 kts 163°
2026-05-07 09:13 41.14441 11.19516 35030 ft 472 kts 163°
2026-05-07 09:13 41.08609 11.23457 35028 ft 474 kts 163°
2026-05-07 09:14 41.02719 11.27425 35030 ft 474 kts 163°
2026-05-07 09:14 40.96824 11.31391 35032 ft 476 kts 163°
2026-05-07 09:15 40.90940 11.35346 35027 ft 478 kts 163°
2026-05-07 09:15 40.85689 11.38866 35019 ft 478 kts 163°
2026-05-07 09:17 40.82619 11.40841 35014 ft 474 kts 167°
2026-05-07 09:18 40.78423 11.43097 35021 ft 470 kts 170°
2026-05-07 09:18 40.72301 11.46102 35020 ft 469 kts 171°
2026-05-07 09:19 40.66174 11.49149 35011 ft 472 kts 170°
2026-05-07 09:19 40.60088 11.52247 35008 ft 473 kts 169°
2026-05-07 09:20 40.53950 11.55387 35008 ft 473 kts 170°
2026-05-07 09:20 40.47795 11.58525 35006 ft 474 kts 170°
2026-05-07 09:21 40.41639 11.61656 35010 ft 475 kts 170°
2026-05-07 09:21 40.35462 11.64788 35005 ft 475 kts 170°
2026-05-07 09:22 40.29284 11.67914 35002 ft 477 kts 170°
2026-05-07 09:22 40.23093 11.71043 35002 ft 477 kts 170°
2026-05-07 09:23 40.16934 11.74148 35005 ft 478 kts 170°
2026-05-07 09:23 40.10732 11.77271 34990 ft 478 kts 170°
2026-05-07 09:24 40.04509 11.80396 34993 ft 478 kts 170°
2026-05-07 09:24 39.98292 11.83492 34985 ft 479 kts 170°
2026-05-07 09:25 39.92059 11.86587 34875 ft 481 kts 170°
2026-05-07 09:25 39.88907 11.88147 34264 ft 485 kts 169°
2026-05-07 09:25 39.85770 11.89720 33694 ft 483 kts 168°
2026-05-07 09:26 39.82671 11.91399 33171 ft 481 kts 166°
2026-05-07 09:26 39.79598 11.93144 32488 ft 482 kts 166°
2026-05-07 09:26 39.76534 11.94911 31792 ft 482 kts 165°
2026-05-07 09:26 39.73458 11.96683 31073 ft 483 kts 165°
2026-05-07 09:27 39.70423 11.98420 30322 ft 483 kts 165°
2026-05-07 09:27 39.67348 12.00166 29542 ft 483 kts 165°
2026-05-07 09:27 39.61206 12.03626 28216 ft 475 kts 164°
2026-05-07 09:28 39.58190 12.05323 27637 ft 469 kts 163°
2026-05-07 09:28 39.55206 12.07002 27069 ft 464 kts 163°
2026-05-07 09:28 39.52260 12.08651 26508 ft 458 kts 163°
2026-05-07 09:28 39.49381 12.10256 25957 ft 453 kts 162°
2026-05-07 09:29 39.46498 12.11859 25403 ft 448 kts 162°
2026-05-07 09:29 39.43647 12.13443 24852 ft 443 kts 161°
2026-05-07 09:29 39.40829 12.15011 24317 ft 438 kts 161°
2026-05-07 09:29 39.38043 12.16561 23778 ft 433 kts 160°
2026-05-07 09:30 39.35291 12.18093 23245 ft 428 kts 160°
2026-05-07 09:30 39.32565 12.19607 22709 ft 424 kts 160°
2026-05-07 09:30 39.29867 12.21105 22179 ft 420 kts 161°
2026-05-07 09:30 39.27197 12.22589 21655 ft 415 kts 161°
2026-05-07 09:31 39.24561 12.24050 21149 ft 410 kts 161°
2026-05-07 09:31 39.21941 12.25500 20626 ft 407 kts 161°
2026-05-07 09:31 39.19353 12.26931 20102 ft 403 kts 161°
2026-05-07 09:31 39.16817 12.28334 19599 ft 400 kts 161°
2026-05-07 09:32 39.14273 12.29740 19101 ft 396 kts 161°
2026-05-07 09:32 39.11753 12.31132 18597 ft 392 kts 161°
2026-05-07 09:32 39.09254 12.32511 18095 ft 389 kts 161°
2026-05-07 09:32 39.06771 12.33880 17593 ft 386 kts 161°
2026-05-07 09:33 39.04309 12.35236 17103 ft 383 kts 161°
2026-05-07 09:33 39.01869 12.36580 16604 ft 379 kts 160°
2026-05-07 09:33 38.99454 12.37908 16135 ft 376 kts 160°
2026-05-07 09:33 38.97061 12.39223 15649 ft 373 kts 160°
2026-05-07 09:34 38.94689 12.40527 15178 ft 369 kts 160°
2026-05-07 09:34 38.92340 12.41817 14697 ft 366 kts 160°
2026-05-07 09:34 38.90793 12.42672 14389 ft 364 kts 160°
2026-05-07 09:34 38.88479 12.43942 13918 ft 361 kts 160°
2026-05-07 09:35 38.86148 12.45152 13506 ft 359 kts 160°
2026-05-07 09:35 38.83890 12.46447 13168 ft 354 kts 158°
2026-05-07 09:35 38.81697 12.47794 12719 ft 351 kts 157°
2026-05-07 09:35 38.79503 12.49157 12246 ft 351 kts 157°
2026-05-07 09:36 38.77297 12.50519 11776 ft 352 kts 156°
2026-05-07 09:36 38.75112 12.51867 11299 ft 349 kts 156°
2026-05-07 09:36 38.72937 12.53199 10921 ft 340 kts 156°
2026-05-07 09:36 38.70829 12.54454 10785 ft 328 kts 156°
2026-05-07 09:37 38.68781 12.55685 10621 ft 321 kts 156°
2026-05-07 09:37 38.66806 12.56871 10495 ft 309 kts 155°
2026-05-07 09:37 38.64892 12.58033 10373 ft 300 kts 155°
2026-05-07 09:37 38.63021 12.59148 10237 ft 291 kts 155°
2026-05-07 09:38 38.61212 12.60221 10115 ft 282 kts 155°
2026-05-07 09:38 38.59453 12.61265 9998 ft 275 kts 155°
2026-05-07 09:38 38.57755 12.62275 9889 ft 266 kts 155°
2026-05-07 09:38 38.56094 12.63263 9630 ft 264 kts 155°
2026-05-07 09:39 38.54409 12.64265 9370 ft 263 kts 154°
2026-05-07 09:39 38.52757 12.65248 9100 ft 261 kts 154°
2026-05-07 09:39 38.51135 12.66213 8839 ft 260 kts 153°
2026-05-07 09:39 38.49494 12.67192 8550 ft 259 kts 153°
2026-05-07 09:40 38.47858 12.68166 8289 ft 258 kts 153°
2026-05-07 09:40 38.46243 12.69127 8117 ft 253 kts 153°
2026-05-07 09:40 38.44669 12.70061 7999 ft 246 kts 153°
2026-05-07 09:40 38.43140 12.70970 7878 ft 239 kts 153°
2026-05-07 09:41 38.41634 12.71867 7646 ft 237 kts 153°
2026-05-07 09:41 38.40163 12.72745 7456 ft 230 kts 153°
2026-05-07 09:41 38.38726 12.73602 7206 ft 225 kts 153°
2026-05-07 09:41 38.37321 12.74439 6967 ft 220 kts 153°
2026-05-07 09:42 38.35950 12.75257 6735 ft 215 kts 153°
2026-05-07 09:42 38.34618 12.76049 6522 ft 209 kts 153°
2026-05-07 09:42 38.33337 12.76810 6316 ft 202 kts 153°
2026-05-07 09:42 38.32082 12.77552 6122 ft 195 kts 153°
2026-05-07 09:43 38.30868 12.78267 5946 ft 190 kts 153°
2026-05-07 09:43 38.29667 12.78975 5778 ft 192 kts 153°
2026-05-07 09:43 38.28443 12.79695 5589 ft 195 kts 153°
2026-05-07 09:43 38.27224 12.80414 5381 ft 190 kts 153°
2026-05-07 09:44 38.26065 12.81094 5284 ft 179 kts 153°
2026-05-07 09:44 38.24939 12.81757 5097 ft 176 kts 153°
2026-05-07 09:44 38.23816 12.82382 4945 ft 177 kts 155°
2026-05-07 09:44 38.22675 12.83001 4778 ft 179 kts 155°
2026-05-07 09:45 38.21527 12.83622 4611 ft 179 kts 155°
2026-05-07 09:45 38.20375 12.84244 4424 ft 180 kts 155°
2026-05-07 09:45 38.19237 12.84860 4233 ft 176 kts 155°
2026-05-07 09:45 38.18106 12.85472 4066 ft 179 kts 155°
2026-05-07 09:46 38.16966 12.86086 3843 ft 175 kts 155°
2026-05-07 09:46 38.15817 12.86709 3383 ft 176 kts 155°
2026-05-07 09:46 38.14743 12.87290 3262 ft 161 kts 156°
2026-05-07 09:46 38.13703 12.87851 3278 ft 173 kts 156°
2026-05-07 09:47 38.12581 12.88461 3183 ft 174 kts 155°
2026-05-07 09:47 38.11671 12.89373 3153 ft 163 kts 115°
2026-05-07 09:47 38.11648 12.90700 3038 ft 154 kts 70°
2026-05-07 09:47 38.11985 12.91976 2847 ft 153 kts 75°
2026-05-07 09:48 38.12316 12.93248 2647 ft 151 kts 71°
2026-05-07 09:48 38.12702 12.94468 2448 ft 147 kts 69°
2026-05-07 09:48 38.13096 12.95661 2265 ft 146 kts 69°
2026-05-07 09:48 38.13495 12.96857 2070 ft 147 kts 69°
2026-05-07 09:49 38.13890 12.98042 1869 ft 145 kts 70°
2026-05-07 09:49 38.14279 12.99210 1682 ft 143 kts 69°
2026-05-07 09:49 38.14665 13.00367 1482 ft 142 kts 70°
2026-05-07 09:49 38.15049 13.01522 1311 ft 141 kts 69°
2026-05-07 09:50 38.15431 13.02664 1113 ft 139 kts 70°
2026-05-07 09:50 38.15808 13.03794 936 ft 139 kts 70°
2026-05-07 09:50 38.16185 13.04925 770 ft 139 kts 70°
2026-05-07 09:50 38.16564 13.06063 569 ft 141 kts 69°
2026-05-07 09:51 38.16938 13.07181 383 ft 137 kts 69°
2026-05-07 09:51 38.17321 13.08331 209 ft 141 kts 70°
2026-05-07 09:51 38.17706 13.09460 84 ft 142 kts 68°
2026-05-07 09:51 38.18096 13.10616 50 ft 143 kts 69°
2026-05-07 09:52 38.18415 13.11582 52 ft 67 kts 65°
2026-05-07 09:52 38.18530 13.11883 50 ft 8 kts 33°
2026-05-07 09:52 38.18586 13.11878 52 ft 9 kts 321°
2026-05-07 09:52 38.18594 13.11838 51 ft 5 kts 279°
2026-05-07 09:53 38.18599 13.11798 52 ft 4 kts 278°
2026-05-07 09:53 38.18603 13.11759 48 ft 4 kts 278°
2026-05-07 09:53 38.18607 13.11720 52 ft 4 kts 276°
2026-05-07 09:53 38.18610 13.11682 52 ft 4 kts 276°
2026-05-07 09:54 38.18613 13.11645 52 ft 4 kts 276°
2026-05-07 09:54 38.18616 13.11609 50 ft 4 kts 276°
2026-05-07 09:54 38.18617 13.11571 52 ft 5 kts 266°
2026-05-07 09:54 38.18606 13.11525 49 ft 7 kts 250°
2026-05-07 09:55 38.18586 13.11456 51 ft 10 kts 247°
2026-05-07 09:55 38.18556 13.11367 52 ft 12 kts 246°
2026-05-07 09:55 38.18516 13.11258 51 ft 15 kts 244°
2026-05-07 09:55 38.18468 13.11131 50 ft 17 kts 244°
2026-05-07 09:56 38.18416 13.10989 50 ft 19 kts 245°
2026-05-07 09:56 38.18370 13.10830 52 ft 19 kts 250°
2026-05-07 09:56 38.18316 13.10676 52 ft 19 kts 248°
2026-05-07 09:56 38.18269 13.10526 50 ft 18 kts 248°
2026-05-07 09:57 38.18233 13.10404 50 ft 11 kts 269°
2026-05-07 09:57 38.18290 13.10369 51 ft 11 kts 30°
2026-05-07 09:57 38.18324 13.10457 49 ft 11 kts 66°
2026-05-07 09:57 38.18387 13.10501 52 ft 11 kts 18°
2026-05-07 09:58 38.18448 13.10547 52 ft 10 kts 60°
2026-05-07 09:58 38.18474 13.10620 51 ft 8 kts 66°
2026-05-07 09:58 38.18516 13.10629 52 ft 7 kts 335°
2026-05-07 09:58 38.18549 13.10611 52 ft 3 kts 337°
2026-05-07 09:59 38.18555 13.10607 48 ft 0 kts 337°